Tracking 31027 objects as of 19-Jul-2025
HD Live streaming from Space Station
objects crossing your sky now

ARIANE 44LP DEB

Track ARIANE 44LP DEB now!
10-day predictions


NORAD ID: 25540
Int'l Code: 1988-109G
Perigee: 377.9 km
Apogee: 26,360.2 km
Inclination: 6.7 °
Period: 460.0 minutes
Semi major axis: 19740 km
RCS: 0.8784 m2 (medium)
Launch date: December 11, 1988
Source: France (FR)
Launch site: FRENCH GUIANA (FRGUI)

Note: This is SATELLITE DEBRIS
Your satellite tracking list
SES-6
Track 1 satellite(s)




NASA's NSSDC Master Catalog

Two Line Element Set (TLE):
1 25540U 88109G   25198.89040422  .00001472  00000-0  15742-2 0  9991
2 25540   6.6792 130.0418 6581112 266.1606  22.1605  3.13026442264751
Source of the keplerian elements: AFSPC